OPS 4682 DEB, 38385

Orbit data source: Space-Track

OPS 4682 DEB, 38385 is space debris in LEO originally from a launch on Sat, 03 Apr 1965 UTC launched from the Air Force Western Test Range (AFWTR). Debris objects in space refer to the collection of defunct objects orbiting the Earth. Examples of debris include non-operational satellites, rocket bodies, and fragments generated from explosions, collisions, or faulty payload assembly.

Loading next visibility...
Identifier
38385, 1965-027CN
Orbit
LEO
Country
Flag of USUS
Related business
Manufacturer
Unknown
Mission
Spacecraft
Bus & Motor
Unknown
Mass
Unknown
Launch date (UTC)
1965-04-03 (61 years ago)
Launch vehicle
Unknown
Launch site
Air Force Western Test Range (AFWTR)
Object type
Payload
Rocket body
Debris
Shape & HBR
Unknown shape, 0.1 m
Radar Cross Section
Medium (>0.1 m² and <1 m²)

Expand to show TLE details & history
Last TLE update: 1 day ago

TLE from 1 day ago
0 OPS 4682 DEB
1 38385U 65027CN  26207.67960050 -.00000326  00000-0 -11549-2 0  9992
2 38385  90.2394 359.7095 0042623 333.3670  26.5260 12.96711441620573
Epoch: 2026-07-26T16:18Z
TLE epoch observation values (Epoch: 2026-07-26T16:18:37.483Z)
Latitude
-0.00007°
Longitude
170.67926°
Altitude
1,248.714 km
Speed
7.244 km/s
True Right ascension
23h 58m 50s
True Declination
0° 00' 00"
Sunlit
Object was in full shadow at epoch
Visualization orbit readout
Latitude
Unknown
Longitude
Unknown
Altitude
Unknown
Speed
Unknown
Apparent Right ascension
Unknown
Apparent Declination
Unknown
Sunlit
N/A
Visualization observer readout
Local Sidereal Time
09:16:29
Azimuth
Unknown
Elevation
Unknown
Doppler factor
Unknown
Orbital elements
Apogee altitude
1,304.738 km
Perigee altitude
1,239.523 km
Semi-major axis
7,650.267 km
Eccentricity
0.00426
Inclination
90.2394°
RAAN
359.7095°
Arg. of periapsis
333.367°
True anomaly
26.74518°
Mean anomaly
26.526°
Eccentric anomaly
26.63548°
Mean motion
3.24361 °/min
Orbital period
110.99 mins
BSTAR
-0.0011549
Loading maneuver chart data...
Computing Atmospheric mass density...
Loading historical data...
Loading historical data...
Loading historical data...
Loading historical data...
Loading historical data...
Loading historical data...
Loading historical data...

Documentation

Showing up to 5 results
|